Main page
METAR-TAF:

METAR-TAF

Airports :

RNAS Yeovilton (HMS Heron)

Yeovilton, England

latitude: 51-00N, longitude: 002-38W, elevation: 23 m

Current weather observation

The report was made 49 minutes ago, at 10:50 UTC
Wind 16 kt from the South/Southwest
Temperature 15°C
Humidity 67%
Pressure 995 hPa
Visibility 10 km or more

METAR: EGDY 091050Z AUTO 20016KT 9999 NCD 15/09 Q0995

Time: 12:39 (11:39 UTC)


TAF: missing

Weather observations and forecasts of more than 4000 airports (METAR and TAF reports).

The available stations are represented by yellow and red dots on the map.

Hover mouse over dot to see the name of the station.

Then click to see weather observations and forecasts.

To change the map : click on the green buttons with a black cross to zoom in, on the green button with a dash to zoom out, or on the green arrows for adjacent maps.


METAR-TAF: